When you browse on this site, cookies collect data to enhance your experience and personalize the content and advertising you see.
Visit our Privacy Policy to learn more. By continuing to use the site, you agree to this use of cookies and data.
  • In Romania
  • List of Countries
  • For 7 days
  • Water Temperature
  • Satellite Maps
  • Weather Map
  • Weather Widgets
  • user-avatar
    Login

    Hourly Weather Arradon

    Today, 24 April, Wednesday

    Time Temperature Precipitation Wind Pressure Humidity
    00:00 +10°C° 0 mm 5 mps 742 mmHg 92%
    01:00 +9°C° 1.6 mm 5 mps 742 mmHg 93%
    02:00 +9°C° 1.6 mm 5 mps 742 mmHg 93%
    03:00 +9°C° 1.6 mm 5 mps 742 mmHg 93%
    04:00 +9°C° 0.4 mm 5 mps 742 mmHg 93%
    05:00 +10°C° 0.4 mm 4 mps 742 mmHg 92%
    06:00 +10°C° 0 mm 3 mps 742 mmHg 93%
    07:00 +11°C° 0.1 mm 4 mps 742 mmHg 86%
    08:00 +12°C° 0.1 mm 5 mps 742 mmHg 80%
    09:00 +13°C° 0.1 mm 6 mps 742 mmHg 73%
    10:00 +13°C° 0.1 mm 6 mps 742 mmHg 72%
    11:00 +12°C° 0.1 mm 7 mps 743 mmHg 70%
    12:00 +14°C° 0.1 mm 7 mps 743 mmHg 68%
    13:00 +12°C° 0.2 mm 8 mps 742 mmHg 69%
    14:00 +12°C° 0.2 mm 8 mps 742 mmHg 70%
    15:00 +12°C° 0.2 mm 8 mps 742 mmHg 71%
    16:00 +11°C° 0.2 mm 8 mps 741 mmHg 73%
    17:00 +11°C° 0.2 mm 8 mps 741 mmHg 75%
    18:00 +10°C° 0.2 mm 7 mps 741 mmHg 78%
    19:00 +10°C° 0.3 mm 8 mps 741 mmHg 81%
    20:00 +10°C° 0.3 mm 8 mps 741 mmHg 84%
    21:00 +10°C° 0.3 mm 8 mps 741 mmHg 87%
    22:00 +9°C° 0.1 mm 8 mps 741 mmHg 87%
    23:00 +9°C° 0.1 mm 7 mps 741 mmHg 86%

    Tomorrow, 25 April, Thursday

    Time Temperature Precipitation Wind Pressure Humidity
    00:00 +9°C° 0.1 mm 6 mps 742 mmHg 86%
    01:00 +8°C° 0.4 mm 6 mps 742 mmHg 86%
    02:00 +8°C° 0.4 mm 6 mps 742 mmHg 86%
    03:00 +8°C° 0.4 mm 6 mps 743 mmHg 86%
    04:00 +8°C° 0.5 mm 6 mps 743 mmHg 85%
    05:00 +8°C° 0.5 mm 6 mps 743 mmHg 85%
    06:00 +8°C° 0.5 mm 7 mps 744 mmHg 84%
    07:00 +9°C° 0.1 mm 7 mps 744 mmHg 80%
    08:00 +10°C° 0.1 mm 7 mps 745 mmHg 76%
    09:00 +11°C° 0.1 mm 8 mps 745 mmHg 72%
    10:00 +11°C° 0.3 mm 8 mps 746 mmHg 70%
    11:00 +11°C° 0.3 mm 9 mps 746 mmHg 68%
    12:00 +12°C° 0.3 mm 9 mps 746 mmHg 66%
    13:00 +12°C° 0.3 mm 9 mps 747 mmHg 67%
    14:00 +12°C° 0.3 mm 9 mps 747 mmHg 68%
    15:00 +12°C° 0.3 mm 9 mps 748 mmHg 68%
    16:00 +11°C° 0.3 mm 8 mps 748 mmHg 72%
    17:00 +11°C° 0.3 mm 7 mps 748 mmHg 76%
    18:00 +10°C° 0.3 mm 6 mps 749 mmHg 80%
    19:00 +9°C° 0.3 mm 6 mps 750 mmHg 82%
    20:00 +9°C° 0.3 mm 5 mps 750 mmHg 85%
    21:00 +8°C° 0.3 mm 5 mps 751 mmHg 87%
    22:00 +8°C° 0.1 mm 5 mps 751 mmHg 88%
    23:00 +8°C° 0.1 mm 4 mps 752 mmHg 89%

    Day after tomorrow, 26 April, Friday

    Time Temperature Precipitation Wind Pressure Humidity
    00:00 +8°C° 0.1 mm 4 mps 752 mmHg 90%
    01:00 +8°C° 0 mm 4 mps 752 mmHg 90%
    02:00 +8°C° 0 mm 4 mps 753 mmHg 91%
    03:00 +8°C° 0 mm 4 mps 753 mmHg 91%
    04:00 +8°C° 0 mm 4 mps 754 mmHg 91%
    05:00 +8°C° 0 mm 4 mps 755 mmHg 91%
    06:00 +8°C° 0 mm 5 mps 756 mmHg 91%
    07:00 +9°C° 0 mm 6 mps 756 mmHg 85%
    08:00 +10°C° 0 mm 7 mps 757 mmHg 80%
    09:00 +11°C° 0 mm 7 mps 758 mmHg 75%
    10:00 +11°C° 0.1 mm 8 mps 758 mmHg 72%
    11:00 +11°C° 0.1 mm 8 mps 759 mmHg 69%
    12:00 +11°C° 0.1 mm 9 mps 760 mmHg 66%
    13:00 +11°C° 0 mm 9 mps 760 mmHg 66%
    14:00 +11°C° 0 mm 9 mps 760 mmHg 65%
    15:00 +11°C° 0 mm 9 mps 761 mmHg 64%
    16:00 +11°C° 0 mm 8 mps 761 mmHg 67%
    17:00 +10°C° 0 mm 8 mps 761 mmHg 71%
    18:00 +9°C° 0 mm 8 mps 760 mmHg 74%
    19:00 +9°C° 0.1 mm 8 mps 761 mmHg 77%
    20:00 +10°C° 0.1 mm 9 mps 761 mmHg 79%
    21:00 +10°C° 0.1 mm 9 mps 761 mmHg 82%
    22:00 +9°C° 0.4 mm 10 mps 760 mmHg 83%
    23:00 +9°C° 0.4 mm 11 mps 760 mmHg 83%

    27 April, Saturday

    Time Temperature Precipitation Wind Pressure Humidity
    00:00 +9°C° 0.4 mm 11 mps 760 mmHg 84%
    01:00 +8°C° 0 mm 11 mps 760 mmHg 82%
    02:00 +7°C° 0 mm 10 mps 760 mmHg 80%
    03:00 +7°C° 0 mm 10 mps 760 mmHg 78%
    04:00 +7°C° 0 mm 10 mps 760 mmHg 78%
    05:00 +7°C° 0 mm 10 mps 760 mmHg 78%
    06:00 +7°C° 0 mm 10 mps 761 mmHg 78%
    07:00 +7°C° 0 mm 10 mps 761 mmHg 73%
    08:00 +8°C° 0 mm 11 mps 762 mmHg 69%
    09:00 +9°C° 0 mm 11 mps 763 mmHg 65%
    10:00 +9°C° 0 mm 11 mps 763 mmHg 64%
    11:00 +11°C° 0 mm 10 mps 764 mmHg 63%
    12:00 +11°C° 0 mm 10 mps 764 mmHg 62%
    13:00 +11°C° 0 mm 9 mps 765 mmHg 63%
    14:00 +10°C° 0 mm 9 mps 765 mmHg 63%
    15:00 +10°C° 0 mm 8 mps 765 mmHg 64%
    16:00 +10°C° 0 mm 8 mps 766 mmHg 66%
    17:00 +10°C° 0 mm 8 mps 766 mmHg 68%
    18:00 +9°C° 0 mm 7 mps 766 mmHg 70%
    19:00 +8°C° 0 mm 6 mps 767 mmHg 72%
    20:00 +7°C° 0 mm 6 mps 767 mmHg 74%
    21:00 +6°C° 0 mm 5 mps 768 mmHg 76%
    22:00 +6°C° 0 mm 5 mps 768 mmHg 78%
    23:00 +5°C° 0 mm 5 mps 768 mmHg 79%

    28 April, Sunday

    Time Temperature Precipitation Wind Pressure Humidity
    00:00 +5°C° 0 mm 4 mps 768 mmHg 81%
    01:00 +5°C° 0 mm 4 mps 768 mmHg 82%
    02:00 +5°C° 0 mm 4 mps 768 mmHg 84%
    03:00 +5°C° 0 mm 4 mps 767 mmHg 85%
    04:00 +5°C° 0 mm 3 mps 767 mmHg 86%
    05:00 +5°C° 0 mm 3 mps 767 mmHg 87%
    06:00 +6°C° 0 mm 2 mps 767 mmHg 87%
    07:00 +8°C° 0 mm 2 mps 767 mmHg 81%
    08:00 +9°C° 0 mm 2 mps 768 mmHg 74%
    09:00 +12°C° 0 mm 2 mps 768 mmHg 68%
    10:00 +13°C° 0 mm 2 mps 768 mmHg 66%
    11:00 +13°C° 0 mm 2 mps 767 mmHg 65%
    12:00 +14°C° 0 mm 1 mps 767 mmHg 63%
    13:00 +14°C° 0 mm 2 mps 767 mmHg 65%
    14:00 +13°C° 0 mm 2 mps 767 mmHg 67%
    15:00 +13°C° 0 mm 2 mps 766 mmHg 70%
    16:00 +13°C° 0 mm 2 mps 766 mmHg 71%
    17:00 +13°C° 0 mm 1 mps 766 mmHg 72%
    18:00 +13°C° 0 mm 1 mps 766 mmHg 74%
    19:00 +12°C° 0 mm 1 mps 766 mmHg 78%
    20:00 +9°C° 0 mm 0 mps 766 mmHg 81%
    21:00 +8°C° 0 mm 0 mps 766 mmHg 85%
    22:00 +9°C° 0 mm 1 mps 765 mmHg 87%
    23:00 +8°C° 0 mm 1 mps 765 mmHg 88%

    29 April, Monday

    Time Temperature Precipitation Wind Pressure Humidity
    00:00 +7°C° 0 mm 2 mps 765 mmHg 90%
    01:00 +7°C° 0 mm 2 mps 764 mmHg 90%
    02:00 +7°C° 0 mm 3 mps 764 mmHg 91%
    03:00 +5°C° 0 mm 3 mps 763 mmHg 92%
    04:00 +5°C° 0 mm 4 mps 763 mmHg 92%
    05:00 +5°C° 0 mm 4 mps 763 mmHg 92%
    06:00 +6°C° 0 mm 4 mps 762 mmHg 92%
    07:00 +7°C° 0 mm 4 mps 762 mmHg 87%
    08:00 +9°C° 0 mm 5 mps 762 mmHg 81%
    09:00 +12°C° 0 mm 5 mps 762 mmHg 75%
    10:00 +13°C° 0 mm 5 mps 761 mmHg 72%
    11:00 +14°C° 0 mm 5 mps 761 mmHg 69%
    12:00 +16°C° 0 mm 5 mps 760 mmHg 66%
    13:00 +16°C° 0 mm 5 mps 760 mmHg 66%
    14:00 +16°C° 0 mm 5 mps 759 mmHg 66%
    15:00 +17°C° 0 mm 5 mps 758 mmHg 66%
    16:00 +16°C° 0 mm 5 mps 758 mmHg 69%
    17:00 +16°C° 0 mm 6 mps 757 mmHg 73%
    18:00 +15°C° 0 mm 6 mps 757 mmHg 76%
    19:00 +14°C° 0 mm 6 mps 757 mmHg 79%
    20:00 +11°C° 0 mm 6 mps 757 mmHg 82%
    21:00 +10°C° 0 mm 6 mps 757 mmHg 84%
    22:00 +10°C° 0 mm 7 mps 757 mmHg 82%
    23:00 +9°C° 0 mm 7 mps 756 mmHg 80%
    Show more